Regional Weather Roundup
Issued by NWS

Home | Current Version | Previous Version | Graphics & Text | Print | Product List | Glossary On
Versions: 1 2 3 4 5 6 7 8 9 10 11 12 13 14 15 16 17 18 19 20 21 22 23 24 25 26 27 28 29 30 31 32 33 34 35 36 37 38 39 40 41 42 43 44 45 46 47 48 49 50
000
ASUS43 KDTX 051301
RWRMI
MICHIGAN HOURLY REGIONAL WEATHER ROUNDUP
NATIONAL WEATHER SERVICE DETROIT/PONTIAC MI
900 AM EDT TUE MAY 05 2015

NOTE: "FAIR" INDICATES FEW OR NO CLOUDS BELOW 12,000 FEET WITH NO
SIGNIFICANT WEATHER AND/OR OBSTRUCTION TO VISIBILITY.

MIZ047>049-052>055-059>063-066>070-074>076-081>083-051400-
SOUTHEAST LOWER MICHIGAN

CITY           SKY/WX    TMP DP  RH WIND       PRES   REMARKS
ADRIAN         LGT RAIN  56  38  50 E9        30.29R
ALMA           LGT RAIN  51  45  81 NE3       30.33S
ANN ARBOR      CLOUDY    56  36  47 E8        30.28F
BAD AXE        CLOUDY    47  38  72 NE5       30.32S
CARO           DRIZZLE   48  40  75 CALM      30.32R
DETROIT CITY   CLOUDY    53  34  48 NE7       30.30S
DETROIT        CLOUDY    57  34  41 NE5       30.30R
FLINT          CLOUDY    54  35  48 NE7       30.31R
GROSSE ILE     CLOUDY    55  39  54 NE8       30.27F
HILLSDALE      LGT RAIN  53  47  81 E8        30.27S
HOWELL         CLOUDY    54  35  49 E3        30.29S

CITY           SKY/WX    TMP DP  RH WIND       PRES   REMARKS
JACKSON        LGT RAIN  55  36  48 E5        30.29R
LAMBERTVILLE   CLOUDY    59  39  47 E9        30.28S
LANSING        CLOUDY    54  36  50 NE8       30.31R
LAPEER         CLOUDY    50  37  60 NE3       30.31R
MASON          CLOUDY    54  36  51 NE7       30.29S
MONROE         CLOUDY    55  37  50 NE6       30.27F
MT. CLEMENS    CLOUDY    53  37  53 NE2       30.28R
PONTIAC        CLOUDY    53  34  48 E7        30.29S
PORT HOPE        N/A     45  37  73 N6        30.30S
PORT HURON     CLOUDY    48  39  71 NE3       30.30S
TRI CITIES     CLOUDY    53  43  68 CALM      30.33R
MIDLAND        CLOUDY    52  37  56 CALM      30.33R
TROY           CLOUDY    54  33  45 NE3       30.31F
SAGINAW HB     CLOUDY    50  41  71 CALM      30.32R
$$
MIZ043>046-050>051-056>058-064>065-071>073-077>080-051400-
SOUTHWEST LOWER MICHIGAN

CITY           SKY/WX    TMP DP  RH WIND       PRES   REMARKS
BATTLE CREEK   LGT RAIN  51  46  83 E10       30.27R
BENTON HARBOR  RAIN      51  51 100 N6        30.25R FOG
BIG RAPIDS     LGT RAIN  50  37  62 SE3       30.32S
COLDWATER      LGT RAIN  52  48  86 E7        30.26R
FREMONT        DRIZZLE   49  40  69 E7        30.31R
HOLLAND        LGT RAIN  53  47  79 NE7       30.30R
GRAND RAPIDS   LGT RAIN  53  43  68 E10       30.30R
IONIA          CLOUDY    53  40  60 E10       30.30R
KALAMAZOO      LGT RAIN  54  51  90 E6        30.27R FOG
LUDINGTON      CLOUDY    51  36  57 E3        30.32R
MARSHALL       LGT RAIN  48  45  88 E7        30.28R
MOUNT PLEASANT LGT RAIN  50  40  68 N5        30.32S
MUSKEGON       LGT RAIN  54  41  61 E6        30.30R
SOUTH HAVEN    RAIN      53  51  94 NE7       30.26R
$$
MIZ016>042-051400-
NORTHERN LOWER MICHIGAN

CITY           SKY/WX    TMP DP  RH WIND       PRES   REMARKS
ALPENA         CLOUDY    47  38  71 W3        30.34R
BEAVER ISLAND  MOSUNNY   48  39  71 NE5       30.34R
BELLAIRE       CLOUDY    43  38  81 S3        30.35R
CADILLAC       CLOUDY    45  34  65 E3        30.32R
CHARLEVOIX     PTSUNNY   47  38  71 CALM      30.37R
FRANKFORT      CLOUDY    51  30  44 E9        30.33R
GAYLORD        CLOUDY    48  34  58 NE7       30.33R
GRAYLING       CLOUDY    43  37  79 CALM      30.34R
HARBOR SPRINGS PTSUNNY   47  40  75 NE3       30.34R
HOUGHTON LAKE  CLOUDY    45  36  70 NE3       30.33
MANISTEE       CLOUDY    46  36  66 SE3       30.33R
OSCODA         CLOUDY    46  38  73 N5        30.32R
PELLSTON       MOSUNNY   50  37  61 NE3       30.34R
ROGERS CITY    PTSUNNY   47  37  69 N5        30.34R
TRAVERSE CITY  CLOUDY    44  39  82 CALM      30.33R
$$
MIZ007>008-015-051400-
EASTERN UPPER MICHIGAN

CITY           SKY/WX    TMP DP  RH WIND       PRES   REMARKS
KINROSS        SUNNY     46  39  76 CALM      30.35R
MACKINAC ISLAN SUNNY     49  37  62 NE7       30.34R
NEWBERRY       SUNNY     49  40  73 CALM      30.34R
S. S. MARIE    SUNNY     47  39  74 CALM      30.34R
MUNISING         N/A     44  34  67 CALM      30.33R
$$
MIZ004>006-011>014-085-051400-
CENTRAL UPPER MICHIGAN

CITY           SKY/WX    TMP DP  RH WIND       PRES   REMARKS
MANISTIQUE     SUNNY     49  37  63 CALM      30.33S
ESCANABA       SUNNY     48  36  61 CALM      30.34R
MENOMINEE      PTSUNNY   52  36  54 E12       30.33R
SAWYER-GWINN   SUNNY     46  36  66 CALM      30.33R
$$
MIZ001>003-009>011-084-051400-
WESTERN UPPER MICHIGAN

CITY           SKY/WX    TMP DP  RH WIND       PRES   REMARKS
IRON MOUNTAIN  SUNNY     47  40  76 CALM      30.32R
HOUGHTON       SUNNY     58  31  35 CALM      30.30R
COPPER HARBOR    N/A     47  34  60 CALM      30.30R
IRONWOOD       SUNNY     54  37  54 CALM      30.28S
$$

ABBREVIATIONS USED IN REMARKS
   TC - TEMPERATURE IN CELSIUS
  WCI - WIND CHILL INDEX
   HX - HEAT INDEX
  VSB - VISIBILITY



USA.gov is the U.S. government's official web portal to all federal, state and local government web resources and services.